Kuchera_Ratio
0.0 0.0 0.0 0.0 0.0 0.0 0.0 0.0 0.0 0.0 0.0 0.0 0.0 0.0 0.0 0.0 0.0 0.0 0.0 0.0 0.0 0.0 0.0 0.0 0.0 0.0 0.0 0.0 0.0 0.0 0.0 0.0 0.0 0.0 0.0 0.0 0.0 0.0 0.0 0.0 0.0 0.0 0.0
0.0 0.0 0.0 0.0 0.0 0.0 0.0 0.0 0.0 0.0 0.0 0.0 0.0 0.0 0.0 0.0 0.0 0.0 0.0 0.0 0.0 0.0 0.0 0.0 0.0 0.0 0.0 0.0 0.0 0.0 0.0 0.0 0.0 0.0 0.0 0.0 0.0 0.0 0.0 0.0 0.0 0.0 0.0
0.0 0.0 0.0 0.0 0.0 0.0 0.0 0.0 0.0 0.0 0.0 0.0 0.0 0.0 0.0 0.0 0.0 0.0 0.0 0.0 0.0 0.0 0.0 0.0 0.0 0.0 0.0 0.0 0.0 0.0 0.0 0.0 0.0 0.0 0.0 0.0 0.0 0.0 0.0 0.0 0.0 0.0 0.0
0.0 0.0 0.0 0.0 0.0 0.0 0.0 0.0 0.0 0.0 0.0 0.0 0.0 0.0 0.0 0.0 0.0 0.0 0.0 0.0 0.0 0.0 0.0 0.0 0.0 0.0 0.0 0.0 0.0 0.0 0.0 0.0 0.0 0.0 0.0 0.0 0.0 0.0 0.0 0.0 0.0 0.0 0.0
0.0 0.0 0.0 0.0 0.0 0.0 0.0 0.0 0.0 0.0 0.0 0.0 0.0 0.0 0.0 0.0 0.0 0.0 0.0 0.0 0.0 0.0 0.0 0.0 0.0 0.0 0.0 0.0 0.0 0.0 0.0 0.0 0.0 0.0 0.0 0.0 0.0 0.0 0.0 0.0 0.2 0.0 0.0
0.0 0.0 0.0 0.0 0.0 0.0 0.0 0.0 0.0 0.0 0.0 0.0 0.0 0.0 0.0 0.0 0.0 0.0 0.0 0.0 0.0 0.0 0.0 0.0 0.0 0.0 0.0 0.0 0.0 0.0 0.0 0.0 0.0 0.0 0.0 0.9 0.0 0.0 0.1 0.2 1.6 4.0 5.2
0.0 0.0 0.0 0.0 0.0 0.0 0.0 0.0 0.0 0.0 0.0 0.0 0.0 0.0 0.0 0.0 0.0 0.0 0.0 0.0 0.0 0.0 0.0 0.0 0.0 0.0 0.0 0.0 0.0 0.0 0.0 0.0 0.0 0.0 0.0 0.0 0.2 0.0 1.1 1.4 3.2 4.0 4.0
0.0 0.0 0.0 0.0 0.0 0.0 0.0 0.0 0.0 0.0 0.0 0.0 0.0 0.0 0.0 0.0 0.0 0.0 0.0 0.0 0.0 0.0 0.0 0.0 0.0 0.0 0.0 0.0 0.0 0.0 0.0 0.0 0.0 0.0 0.0 0.0 0.0 0.0 0.0 0.0 0.8 4.3 4.8
0.0 0.0 0.0 0.0 0.0 0.0 0.0 0.0 0.0 0.0 0.0 0.0 0.0 0.0 0.0 0.0 0.0 0.0 0.0 0.0 0.0 0.0 0.0 0.0 0.0 0.0 0.0 0.0 1.1 0.8 0.7 1.0 0.0 0.0 0.0 0.0 0.0 0.0 0.0 2.6 5.8 6.4 7.4
0.0 0.0 0.0 0.0 0.0 0.0 0.0 0.0 0.0 0.0 0.0 0.0 0.0 0.0 0.0 0.0 0.0 0.0 0.0 0.0 0.0 0.0 0.6 1.0 1.2 0.4 1.1 1.5 1.7 2.2 2.6 0.0 1.6 1.6 2.6 2.6 0.7 0.6 1.5 1.0 3.4 6.2 7.8
0.0 0.0 0.0 0.0 0.0 0.0 0.0 0.0 0.0 0.0 0.0 0.0 0.0 0.0 0.0 0.0 0.0 0.0 0.0 0.0 0.0 0.7 2.2 2.9 2.7 3.0 2.8 2.6 2.8 3.4 2.8 1.9 1.6 2.5 3.9 4.8 5.1 4.0 3.8 3.1 2.6 4.0 7.0
0.0 0.0 0.0 0.0 0.0 0.0 0.0 0.0 0.0 0.0 0.0 0.0 0.0 0.0 0.0 0.0 0.0 0.0 0.0 0.0 0.2 1.5 3.1 3.1 3.8 2.8 2.6 3.6 4.0 4.1 3.5 3.6 4.0 4.6 5.5 6.3 7.4 7.2 5.8 5.4 4.3 3.8 3.3
0.0 0.0 0.0 0.0 0.0 0.0 0.0 0.0 0.0 0.0 0.0 1.4 2.9 2.9 2.1 0.0 0.0 0.0 0.5 0.0 1.0 3.1 3.5 4.4 4.0 3.8 4.2 5.4 4.8 4.5 4.6 5.0 5.9 6.5 6.6 6.9 7.2 6.2 5.8 6.2 6.2 5.8 6.4
0.0 0.0 0.0 0.0 0.0 0.0 0.4 1.0 1.4 2.3 2.8 4.0 5.0 6.0 4.9 4.4 4.5 4.1 2.5 3.4 4.0 5.1 5.5 5.9 6.1 6.4 6.6 6.5 6.0 5.7 5.5 5.9 6.2 6.2 6.8 7.2 6.8 7.0 7.0 6.6 7.2 6.4 8.2
0.0 0.0 0.0 0.0 0.0 1.0 3.2 4.6 4.1 3.7 1.9 3.0 2.3 1.7 4.7 6.4 2.0 1.2 3.5 4.6 4.5 5.9 7.4 7.6 7.8 7.8 7.8 7.8 7.7 7.6 7.2 7.4 7.2 7.4 7.6 8.0 7.6 7.4 7.6 6.8 7.4 7.4 9.2
2.8 3.0 4.2 3.8 4.0 4.4 5.6 5.2 3.8 4.1 3.4 3.3 2.6 2.3 1.9 1.9 2.2 2.3 3.8 4.3 4.8 7.2 8.0 8.4 8.0 8.0 8.0 8.0 8.6 8.8 9.0 8.0 7.8 7.8 7.6 7.4 7.8 7.8 8.0 7.8 7.4 7.8 9.0
4.8 4.8 5.4 6.0 6.4 6.8 6.8 6.9 7.4 5.8 4.0 3.6 3.2 3.2 3.4 3.6 3.6 3.4 3.6 4.8 5.8 7.6 8.4 8.4 8.2 8.0 7.8 8.4 8.6 9.2 9.4 8.0 8.0 7.8 7.6 7.6 7.6 7.6 7.8 8.4 8.2 8.2 8.8
5.4 7.4 7.2 7.4 8.6 8.2 7.6 8.8 8.8 9.4 9.4 7.4 4.4 5.0 4.6 4.0 3.6 3.8 5.0 6.8 9.0 8.2 8.8 8.8 8.6 8.0 8.2 8.6 8.6 9.0 8.8 8.6 8.0 7.8 7.6 7.4 7.4 7.6 8.0 8.4 8.4 8.8 9.0
6.6 7.6 7.6 8.0 8.2 8.4 8.4 7.8 7.8 7.2 7.4 7.0 6.2 6.2 5.9 5.2 4.8 5.2 6.6 8.8 9.2 9.8 9.4 9.4 8.8 8.6 8.6 8.1 7.8 8.0 7.8 8.2 7.8 7.8 7.8 7.6 7.6 7.4 7.6 7.8 8.0 8.4 8.6
7.8 7.6 8.0 8.4 9.0 8.8 9.0 8.6 7.6 7.8 7.8 7.6 7.4 7.2 7.0 8.2 9.2 9.0 8.8 8.6 8.8 9.0 8.8 8.6 8.2 8.6 8.2 8.0 7.8 7.8 8.0 8.0 8.0 7.8 7.8 7.8 7.6 7.2 7.6 7.6 7.8 9.0 8.8
11.5 10.4 6.6 5.9 6.7 7.3 10.4 10.2 10.0 10.2 10.6 9.6 8.2 7.4 7.4 8.2 8.0 8.0 8.4 8.6 8.6 8.6 8.4 8.2 8.4 8.2 8.0 8.0 8.0 7.8 8.2 7.8 8.2 7.8 8.0 7.8 7.6 7.6 7.2 7.0 7.4 7.8 8.2
9.2 8.8 8.4 8.6 8.0 8.3 11.1 11.6 12.1 12.3 11.4 12.1 11.6 9.0 7.0 7.4 7.6 8.0 8.0 8.0 7.8 7.8 7.6 7.8 8.0 8.0 8.0 8.0 8.0 7.6 7.8 7.8 7.8 7.8 7.8 7.8 7.8 7.6 7.6 7.6 7.8 8.0 8.2
13.6 13.2 12.3 10.2 9.6 10.8 12.1 12.9 12.7 12.8 13.3 13.6 12.0 11.4 8.2 7.6 7.6 7.8 7.8 7.8 8.0 7.8 7.6 7.8 7.8 8.4 7.4 7.4 7.0 7.2 7.6 7.8 7.4 7.2 7.6 7.8 8.0 7.8 7.4 7.6 7.6 8.4 8.6
14.9 15.3 14.9 14.6 13.6 13.1 14.0 14.1 14.0 14.0 14.3 14.3 12.6 12.2 10.8 8.0 7.4 7.6 7.8 7.8 7.8 7.6 7.4 7.6 8.2 8.2 7.2 7.4 7.2 7.4 7.6 7.5 7.1 7.2 7.0 7.6 8.2 8.0 7.6 7.6 7.6 7.6 8.0
16.1 16.5 15.0 14.9 14.9 15.2 15.0 14.5 14.1 15.7 15.4 15.0 12.5 11.6 10.4 9.2 7.8 8.0 8.6 8.8 9.2 8.2 10.8 10.8 11.6 10.4 8.8 8.4 8.3 8.5 8.3 7.8 8.0 7.8 7.8 7.6 7.8 8.0 7.6 7.6 7.6 7.8 7.8
17.1 16.1 16.0 15.7 15.5 15.5 16.1 15.7 14.9 14.7 15.4 15.1 14.9 13.5 12.6 10.2 10.4 12.5 13.1 13.3 13.6 13.9 14.1 13.9 13.8 13.5 13.1 12.2 11.5 9.4 7.6 7.6 7.6 7.8 7.8 8.0 8.0 8.2 8.0 7.8 7.8 7.8 7.8